GW4674 Weather Reports


Display with metric or nautical units.
time (UTC)temp
F
wind
direction
speed
MPH
gust
MPH
rain 1hr
in
rain 24hr
in
rain mn
in
humidity
%
barometer
mb
20260510182855 67 196 0.0 1.0 0.00 0.00 0.00 76 1019.4
20260510182352 67 32 2.0 2.0 0.00 0.00 0.00 72 1019.2
20260510181847 68 262 3.0 3.0 0.00 0.00 0.00 70 1019.3
20260510181345 69 346 0.0 2.0 0.00 0.00 0.00 70 1019.3
20260510180841 69 9 0.0 2.0 0.00 0.00 0.00 71 1019.2
20260510180338 70 337 0.0 4.0 0.00 0.00 0.00 69 1019.3
20260510175835 69 261 0.0 1.0 0.00 0.00 0.00 73 1019.3
20260510175331 69 13 0.0 3.0 0.00 0.00 0.00 69 1019.4
20260510174827 69 282 0.0 5.0 0.00 0.00 0.00 70 1019.5
20260510174325 69 252 2.0 3.0 0.00 0.00 0.00 68 1019.3
20260510173821 69 97 0.0 3.0 0.00 0.00 0.00 71 1019.3
20260510173317 69 178 0.0 2.0 0.00 0.00 0.00 75 1019.5
20260510172813 68 195 3.0 4.0 0.00 0.00 0.00 71 1019.5
20260510172309 67 262 0.0 2.0 0.00 0.00 0.00 73 1019.3
20260510171807 67 119 1.0 2.0 0.00 0.00 0.00 75 1019.4
20260510171304 67 357 2.0 4.0 0.00 0.00 0.00 76 1019.2
20260510170801 68 213 2.0 2.0 0.00 0.00 0.00 72 1019.4
20260510170257 67 346 2.0 7.0 0.00 0.00 0.00 74 1019.5
20260510165752 65 244 2.0 3.0 0.00 0.00 0.00 77 1019.3
20260510165248 65 244 4.0 4.0 0.00 0.00 0.00 78 1019.4
20260510164746 65 101 1.0 4.0 0.00 0.00 0.00 77 1019.4
20260510164243 65 273 3.0 4.0 0.00 0.00 0.00 78 1019.4
20260510163738 64 343 1.0 2.0 0.00 0.00 0.00 81 1019.6
20260510163234 62 125 1.0 2.0 0.00 0.00 0.00 84 1019.7
20260510162733 62 247 0.0 2.0 0.00 0.00 0.00 87 1019.5
20260510162231 61 213 2.0 4.0 0.00 0.00 0.00 86 1019.7
20260510161726 60 182 2.0 3.0 0.00 0.00 0.00 87 1019.7
20260510161223 61 61 2.0 2.0 0.00 0.00 0.00 85 1019.7
20260510160720 61 70 0.0 3.0 0.00 0.00 0.00 86 1019.6
20260510160215 61 79 1.0 2.0 0.00 0.00 0.00 87 1019.8
20260510155711 60 48 0.0 2.0 0.00 0.00 0.00 89 1019.8
20260510155207 59 224 0.0 3.0 0.00 0.00 0.00 89 1019.8
20260510154703 60 277 0.0 1.0 0.00 0.00 0.00 91 1019.7
20260510154159 59 181 0.0 2.0 0.00 0.00 0.00 90 1019.7
20260510153654 59 139 0.0 2.0 0.00 0.00 0.00 91 1019.6
20260510153151 59 262 0.0 3.0 0.00 0.00 0.00 92 1020.0
20260510152647 58 355 2.0 2.0 0.00 0.00 0.00 93 1020.0
20260510152143 57 234 2.0 4.0 0.00 0.00 0.00 94 1020.0
20260510151640 57 267 2.0 3.0 0.00 0.00 0.00 94 1020.0
20260510151139 57 231 2.0 4.0 0.00 0.00 0.00 95 1020.0
20260510150634 57 217 2.0 2.0 0.00 0.00 0.00 95 1020.1
20260510150130 57 218 2.0 2.0 0.00 0.00 0.00 95 1020.0
20260510145626 56 256 0.0 3.0 0.00 0.00 0.00 95 1020.1
20260510145123 56 99 0.0 2.0 0.00 0.00 0.00 95 1020.0
20260510144619 57 239 0.0 2.0 0.00 0.00 0.00 96 1020.0
20260510144115 56 238 0.0 2.0 0.00 0.00 0.00 96 1019.8
20260510143610 55 255 1.0 3.0 0.00 0.00 0.00 97 1019.8
20260510143107 56 207 2.0 2.0 0.00 0.00 0.00 97 1019.9
20260510142604 55 253 1.0 3.0 0.00 0.00 0.00 98 1019.7
20260510142100 56 244 0.0 0.0 0.00 0.00 0.00 99 1019.5
20260510141557 55 295 0.0 1.0 0.00 0.00 0.00 99 1019.6
20260510141056 55 161 1.0 2.0 0.00 0.00 0.00 99 1019.8
20260510140551 54 204 0.0 2.0 0.00 0.00 0.00 99 1019.7
20260510140050 54 126 0.0 2.0 0.00 0.00 0.00 99 1019.8
20260510135547 54 251 0.0 2.0 0.00 0.00 0.00 99 1019.8
20260510135043 54 156 1.0 2.0 0.00 0.00 0.00 99 1019.5
20260510134540 54 265 0.0 1.0 0.00 0.00 0.00 99 1019.6
20260510134037 53 139 0.0 2.0 0.00 0.00 0.00 99 1019.5
20260510133533 53 239 2.0 2.0 0.00 0.00 0.00 99 1019.6
20260510133029 53 200 0.0 2.0 0.00 0.00 0.00 99 1019.4
20260510132526 54 219 0.0 1.0 0.00 0.00 0.00 99 1019.2
20260510132023 53 151 0.0 0.0 0.00 0.00 0.00 99 1019.2
20260510131521 53 267 0.0 2.0 0.00 0.00 0.00 99 1019.2
20260510131018 53 268 0.0 1.0 0.00 0.00 0.00 99 1019.3
20260510130514 53 195 2.0 3.0 0.00 0.00 0.00 99 1019.2
20260510130012 53 169 0.0 0.0 0.00 0.00 0.00 99 1019.4
20260510125507 53 267 0.0 1.0 0.00 0.00 0.00 99 1019.6
20260510125004 52 169 0.0 0.0 0.00 0.00 0.00 99 1019.2
20260510124501 52 169 0.0 0.0 0.00 0.00 0.00 99 1019.4
20260510123958 53 270 0.0 1.0 0.00 0.00 0.00 99 1019.1
20260510123453 53 152 0.0 1.0 0.00 0.00 0.00 99 1019.1
20260510122950 52 300 0.0 1.0 0.00 0.00 0.00 99 1019.1
20260510122445 52 230 0.0 2.0 0.00 0.00 0.00 99 1019.1
20260510121941 52 113 0.0 0.0 0.00 0.00 0.00 99 1019.0
20260510121439 51 147 0.0 2.0 0.00 0.00 0.00 99 1019.0
20260510120936 52 313 0.0 1.0 0.00 0.00 0.00 99 1018.9
20260510120433 51 296 0.0 1.0 0.00 0.00 0.00 99 1018.9
20260510115929 51 266 1.0 2.0 0.00 0.00 0.00 99 1018.9
20260510115426 51 179 1.0 3.0 0.00 0.00 0.00 99 1018.9
20260510114916 51 300 0.0 3.0 0.00 0.00 0.00 99 1018.9
20260510114413 51 42 0.0 2.0 0.00 0.00 0.00 99 1018.7
20260510113908 51 116 0.0 2.0 0.00 0.00 0.00 99 1018.5
20260510113404 51 300 0.0 2.0 0.00 0.00 0.00 99 1018.4
20260510112901 51 155 0.0 3.0 0.00 0.00 0.00 99 1018.1
20260510112358 51 152 0.0 2.0 0.00 0.00 0.00 99 1018.5
20260510111855 51 266 0.0 1.0 0.00 0.00 0.00 99 1018.3
20260510111351 51 256 2.0 2.0 0.00 0.00 0.00 99 1018.4
20260510110847 50 293 0.0 1.0 0.00 0.00 0.00 99 1018.4
20260510110344 50 242 0.0 3.0 0.00 0.00 0.00 99 1018.2
20260510105840 50 233 2.0 3.0 0.00 0.00 0.00 99 1018.3
20260510105339 50 270 0.0 3.0 0.00 0.00 0.00 99 1018.4
20260510104836 50 218 0.0 2.0 0.00 0.00 0.00 99 1018.3
20260510104333 50 130 0.0 2.0 0.00 0.00 0.00 99 1018.4
20260510103829 50 124 0.0 2.0 0.00 0.00 0.00 99 1018.2
20260510103326 50 241 2.0 3.0 0.00 0.00 0.00 99 1018.2
20260510102822 50 149 1.0 3.0 0.00 0.00 0.00 99 1018.2
20260510102318 50 241 2.0 2.0 0.00 0.00 0.00 99 1018.0
20260510101815 50 166 1.0 2.0 0.00 0.00 0.00 99 1018.0
20260510101313 50 245 2.0 3.0 0.00 0.00 0.00 99 1018.2
20260510100809 50 308 0.0 2.0 0.00 0.00 0.00 99 1018.2
20260510100307 50 306 0.0 1.0 0.00 0.00 0.00 99 1018.0
20260510095802 50 191 1.0 2.0 0.00 0.00 0.00 99 1018.2
20260510095258 50 184 2.0 2.0 0.00 0.00 0.00 99 1018.2
20260510094756 50 139 0.0 2.0 0.00 0.00 0.00 99 1018.0
20260510094251 50 165 1.0 2.0 0.00 0.00 0.00 99 1018.1
20260510093748 50 220 0.0 2.0 0.00 0.00 0.00 99 1018.3
20260510093245 50 338 0.0 2.0 0.00 0.00 0.00 99 1018.5
20260510092741 50 315 0.0 1.0 0.00 0.00 0.00 99 1018.5
20260510092237 50 149 0.0 2.0 0.00 0.00 0.00 99 1018.4
20260510091733 50 236 0.0 2.0 0.00 0.00 0.00 99 1018.5
20260510091230 50 160 2.0 2.0 0.00 0.00 0.00 99 1018.4
20260510090726 50 120 0.0 1.0 0.00 0.00 0.00 99 1018.4
20260510090224 50 93 0.0 2.0 0.00 0.00 0.00 99 1018.5
20260510085718 50 131 0.0 0.0 0.00 0.00 0.00 99 1018.6
20260510085213 50 127 0.0 2.0 0.00 0.00 0.00 99 1018.5
20260510084710 50 124 0.0 2.0 0.00 0.00 0.00 99 1018.5
20260510084207 50 116 0.0 2.0 0.00 0.00 0.00 99 1018.6
20260510083704 50 160 0.0 2.0 0.00 0.00 0.00 99 1018.6
20260510083201 50 48 0.0 2.0 0.00 0.00 0.00 99 1018.9
20260510082656 50 338 2.0 2.0 0.00 0.00 0.00 99 1018.8
20260510082153 50 322 0.0 1.0 0.00 0.00 0.00 99 1018.6
20260510081648 50 263 0.0 2.0 0.00 0.00 0.00 99 1018.7
20260510081144 50 238 0.0 2.0 0.00 0.00 0.00 99 1018.8
20260510080643 50 305 0.0 2.0 0.00 0.00 0.00 99 1018.4
20260510080140 50 213 2.0 2.0 0.00 0.00 0.00 99 1018.2
20260510075637 50 309 0.0 1.0 0.00 0.00 0.00 99 1018.2
20260510075135 50 310 0.0 1.0 0.00 0.00 0.00 99 1017.8
20260510074631 50 311 0.0 1.0 0.00 0.00 0.00 99 1017.7
20260510074127 50 266 0.0 1.0 0.00 0.00 0.00 99 1017.6
20260510073624 50 142 0.0 1.0 0.00 0.00 0.00 99 1017.6
20260510073120 50 133 0.0 1.0 0.00 0.00 0.00 99 1017.9
20260510072616 50 168 1.0 1.0 0.00 0.00 0.00 99 1017.9
20260510072113 50 274 0.0 1.0 0.00 0.00 0.00 99 1017.8
20260510071608 50 153 0.0 1.0 0.00 0.00 0.00 99 1017.7
20260510071106 50 304 0.0 1.0 0.00 0.00 0.00 99 1017.8
20260510070558 50 101 0.0 1.0 0.00 0.00 0.00 99 1018.0
20260510070055 50 115 0.0 1.0 0.00 0.00 0.00 99 1018.0
20260510065551 50 293 0.0 1.0 0.00 0.00 0.00 99 1018.0
20260510065047 50 304 0.0 1.0 0.00 0.00 0.00 99 1018.0
20260510064543 50 99 0.0 1.0 0.00 0.00 0.00 99 1018.0
20260510064040 50 309 0.0 1.0 0.00 0.00 0.00 99 1017.9
20260510063538 50 142 0.0 0.0 0.00 0.00 0.00 99 1017.9
20260510063035 50 288 0.0 1.0 0.00 0.00 0.00 99 1017.9
20260510062530 50 300 0.0 2.0 0.00 0.00 0.00 99 1017.9
20260510062026 50 303 0.0 1.0 0.00 0.00 0.00 99 1017.9
20260510061522 50 322 0.0 0.0 0.00 0.00 0.00 99 1017.8
20260510061019 50 289 0.0 1.0 0.00 0.00 0.00 99 1017.8
20260510060516 50 300 0.0 0.0 0.00 0.00 0.00 99 1017.7
20260510060012 50 268 0.0 0.0 0.00 0.00 0.00 99 1017.7
20260510055508 50 260 1.0 2.0 0.00 0.00 0.00 99 1017.6
20260510055006 50 180 0.0 0.0 0.00 0.00 0.00 99 1017.4
20260510054502 50 208 1.0 1.0 0.00 0.00 0.00 99 1017.7
20260510053957 50 298 0.0 0.0 0.00 0.00 0.00 99 1017.7
20260510053452 50 277 0.0 0.0 0.00 0.00 0.00 99 1017.7
20260510052948 50 100 0.0 1.0 0.00 0.00 0.00 99 1017.6
20260510052444 50 123 1.0 2.0 0.00 0.00 0.00 99 1017.8
20260510051941 50 114 0.0 1.0 0.00 0.00 0.00 99 1017.9
20260510051436 50 133 0.0 1.0 0.00 0.00 0.00 99 1017.9
20260510050933 50 179 1.0 1.0 0.00 0.00 0.00 99 1017.8
20260510050430 50 277 0.0 1.0 0.00 0.00 0.00 99 1018.0
20260510045928 50 228 0.0 1.0 0.00 0.00 0.00 99 1018.0
20260510045425 50 142 0.0 1.0 0.00 0.00 0.00 99 1017.8
20260510044921 50 293 0.0 0.0 0.00 0.00 0.00 99 1017.9
20260510044418 51 250 0.0 1.0 0.00 0.00 0.00 99 1018.0
20260510043915 51 255 0.0 0.0 0.00 0.00 0.00 99 1017.9
20260510043411 51 293 0.0 0.0 0.00 0.00 0.00 99 1018.1
20260510042909 51 214 1.0 2.0 0.00 0.00 0.00 99 1018.1
20260510042405 51 253 0.0 2.0 0.00 0.00 0.00 99 1017.8
20260510041900 51 298 0.0 1.0 0.00 0.00 0.00 99 1017.6
20260510041358 51 294 0.0 1.0 0.00 0.00 0.00 99 1017.6
20260510040855 51 311 0.0 1.0 0.00 0.00 0.00 99 1017.8
20260510040353 51 126 0.0 1.0 0.00 0.00 0.00 99 1017.9
20260510035848 51 152 0.0 1.0 0.00 0.83 0.83 99 1017.7
20260510035344 51 318 0.0 1.0 0.00 0.83 0.83 99 1017.6
20260510034839 51 137 1.0 2.0 0.00 0.83 0.83 99 1017.4
20260510034338 51 156 0.0 1.0 0.00 0.83 0.83 99 1017.5
20260510033833 51 300 0.0 2.0 0.00 0.83 0.83 99 1017.5
20260510033330 51 319 0.0 1.0 0.00 0.83 0.83 99 1017.6
20260510032827 51 114 0.0 2.0 0.00 0.83 0.83 99 1017.6
20260510032324 51 96 0.0 1.0 0.00 0.83 0.83 99 1017.6
20260510031820 51 133 0.0 1.0 0.00 0.83 0.83 99 1017.7
20260510031315 51 277 0.0 2.0 0.00 0.83 0.83 99 1017.8
20260510030815 51 120 0.0 2.0 0.00 0.83 0.83 99 1017.8
20260510030312 51 286 1.0 2.0 0.00 0.83 0.83 99 1017.7
20260510025809 51 140 0.0 2.0 0.00 0.83 0.83 99 1017.7
20260510025306 51 164 0.0 1.0 0.00 0.83 0.83 99 1017.9
20260510024802 51 142 0.0 1.0 0.00 0.83 0.83 99 1017.9
20260510024300 51 294 1.0 2.0 0.00 0.83 0.83 99 1017.8
20260510023756 51 169 0.0 1.0 0.00 0.83 0.83 99 1017.8
20260510023252 51 120 0.0 2.0 0.00 0.83 0.83 99 1018.0
20260510022749 51 155 0.0 1.0 0.00 0.83 0.83 99 1017.8
20260510022244 51 265 1.0 2.0 0.00 0.83 0.83 99 1017.8
20260510021743 51 145 0.0 2.0 0.00 0.83 0.83 99 1017.7
20260510021242 51 70 0.0 2.0 0.00 0.83 0.83 99 1017.7
20260510020736 51 213 1.0 2.0 0.00 0.83 0.83 99 1017.6
20260510020236 51 233 0.0 1.0 0.00 0.83 0.83 99 1017.6
20260510015733 51 108 0.0 2.0 0.00 0.83 0.83 99 1017.5
20260510015229 51 131 2.0 2.0 0.00 0.83 0.83 99 1017.5
20260510014724 51 120 0.0 4.0 0.00 0.83 0.83 99 1017.7
20260510014222 51 311 0.0 1.0 0.00 0.83 0.83 99 1017.6
20260510013718 51 334 0.0 0.0 0.00 0.83 0.83 99 1017.5
20260510013214 51 6 0.0 0.0 0.00 0.83 0.83 99 1017.6
20260510012713 51 293 0.0 2.0 0.00 0.83 0.83 99 1017.6
20260510012209 51 349 0.0 0.0 0.00 0.83 0.83 99 1017.4
20260510011704 51 268 0.0 0.0 0.00 0.83 0.83 99 1017.3
20260510011200 52 286 0.0 0.0 0.00 0.83 0.83 99 1017.2
20260510010656 52 255 0.0 3.0 0.00 0.83 0.83 99 1017.0
20260510010153 52 299 0.0 1.0 0.00 0.83 0.83 99 1017.1
20260510005649 52 161 1.0 2.0 0.00 0.83 0.83 99 1017.0
20260510005146 51 160 0.0 1.0 0.00 0.83 0.83 99 1017.1
20260510004644 51 149 0.0 2.0 0.00 0.83 0.83 99 1017.0
20260510004142 51 149 0.0 0.0 0.00 0.83 0.83 99 1016.8
20260510003639 51 244 0.0 0.0 0.00 0.83 0.83 99 1017.0
20260510003135 51 244 0.0 0.0 0.00 0.83 0.83 99 1017.2
20260510002635 51 175 0.0 0.0 0.00 0.83 0.83 99 1017.0
20260510002132 52 142 0.0 0.0 0.00 0.83 0.83 99 1016.8
20260510001629 52 294 0.0 0.0 0.00 0.83 0.83 99 1016.7
20260510001128 52 64 0.0 0.0 0.00 0.83 0.83 99 1016.6
20260510000627 52 319 0.0 0.0 0.00 0.83 0.83 99 1016.6
20260510000125 53 349 0.0 1.0 0.00 0.83 0.83 99 1016.6
20260509235621 53 43 0.0 0.0 0.00 0.83 0.83 99 1016.7
20260509235118 53 191 0.0 1.0 0.00 0.83 0.83 99 1016.7
20260509234614 53 177 0.0 1.0 0.00 0.83 0.83 99 1017.0
20260509234112 53 0 0.0 0.0 0.00 0.83 0.83 99 1017.0
20260509233609 53 0 0.0 0.0 0.00 0.83 0.83 99 1017.1
20260509233106 53 274 0.0 0.0 0.00 0.83 0.83 99 1017.0
20260509232603 53 350 0.0 0.0 0.00 0.83 0.83 99 1016.9
20260509232100 53 313 0.0 0.0 0.00 0.83 0.83 99 1017.1
20260509231556 53 302 0.0 1.0 0.00 0.83 0.83 99 1017.3
20260509231054 53 264 1.0 1.0 0.00 0.83 0.83 99 1017.1
20260509230550 53 244 0.0 1.0 0.02 0.83 0.83 99 1017.2
20260509230048 53 344 0.0 0.0 0.05 0.83 0.83 99 1017.1
20260509225548 53 96 0.0 1.0 0.02 0.82 0.82 99 1017.4
20260509225044 53 236 2.0 2.0 0.02 0.82 0.82 99 1017.3
20260509224540 53 156 2.0 3.0 0.02 0.82 0.82 99 1017.4
20260509224037 53 307 2.0 3.0 0.05 0.81 0.81 99 1017.0
20260509223534 53 206 2.0 3.0 0.14 0.81 0.81 99 1016.9
20260509223032 53 173 2.0 2.0 0.21 0.81 0.81 99 1017.2
20260509222527 53 172 2.0 2.0 0.21 0.79 0.79 99 1017.5
20260509222023 53 216 2.0 2.0 0.21 0.77 0.77 99 1017.7
20260509221519 54 82 0.0 2.0 0.19 0.75 0.75 99 1017.6
20260509221015 54 285 1.0 2.0 0.17 0.73 0.73 99 1017.6
20260509220512 54 212 1.0 2.0 0.24 0.72 0.72 99 1017.4
20260509220008 54 149 0.0 3.0 0.24 0.70 0.70 99 1017.7
20260509215503 54 182 2.0 3.0 0.19 0.67 0.67 99 1017.8
20260509215001 54 106 0.0 2.0 0.26 0.66 0.66 99 1017.8
20260509214458 54 131 1.0 2.0 0.26 0.64 0.64 99 1017.7
20260509213954 54 304 0.0 1.0 0.17 0.62 0.62 99 1017.9
20260509213451 54 253 2.0 2.0 0.09 0.59 0.59 99 1018.0
20260509212948 54 355 0.0 1.0 0.12 0.59 0.59 99 1017.8
20260509212445 54 220 1.0 2.0 0.09 0.57 0.57 99 1018.0
20260509211942 54 137 0.0 2.0 0.21 0.57 0.57 99 1017.9
20260509211437 54 157 1.0 1.0 0.21 0.56 0.56 99 1018.0
20260509210934 55 330 0.0 2.0 0.07 0.53 0.53 99 1018.0
20260509210431 55 300 0.0 2.0 0.12 0.52 0.52 99 1017.8
20260509205927 55 262 2.0 2.0 0.09 0.52 0.52 99 1017.8
20260509205427 55 338 2.0 4.0 0.05 0.50 0.50 99 1018.1
20260509204923 55 202 2.0 3.0 0.05 0.50 0.50 99 1018.0
20260509204419 55 206 1.0 2.0 0.02 0.50 0.50 99 1017.9
20260509203916 55 140 0.0 2.0 0.02 0.49 0.49 99 1017.8
20260509203412 55 132 0.0 2.0 0.02 0.49 0.49 99 1017.8
20260509202910 55 135 0.0 2.0 0.00 0.49 0.49 99 1017.8
20260509202405 55 191 2.0 2.0 0.00 0.49 0.49 99 1017.7
20260509201900 55 233 1.0 2.0 0.02 0.49 0.49 99 1017.7
20260509201356 55 250 0.0 2.0 0.07 0.49 0.49 99 1017.1
20260509200853 55 71 0.0 2.0 0.07 0.48 0.48 99 1017.4
20260509200348 55 207 1.0 2.0 0.07 0.48 0.48 99 1017.8
20260509195845 55 177 2.0 3.0 0.07 0.47 0.47 99 1017.7
20260509195345 55 169 0.0 1.0 0.09 0.47 0.47 99 1017.6
20260509194845 55 154 2.0 2.0 0.07 0.46 0.46 99 1018.0
20260509194341 55 270 0.0 1.0 0.07 0.45 0.45 99 1017.9
20260509193838 55 278 2.0 2.0 0.07 0.45 0.45 99 1018.0
20260509193338 55 198 2.0 3.0 0.09 0.44 0.44 99 1018.3
20260509192834 55 164 0.0 2.0 0.07 0.43 0.43 98 1018.0
20260509192330 55 247 0.0 4.0 0.07 0.42 0.42 98 1018.2
20260509191825 54 240 2.0 4.0 0.09 0.42 0.42 98 1018.0
20260509191321 54 257 2.0 3.0 0.12 0.41 0.41 98 1018.3
20260509190817 55 230 2.0 3.0 0.14 0.40 0.40 97 1018.2
20260509190315 54 206 2.0 3.0 0.38 0.38 0.38 97 1018.2
20260509185812 54 176 1.0 3.0 0.85 0.37 0.37 97 1018.2
20260509185308 55 170 2.0 3.0 0.87 0.30 0.30 96 1018.3
20260509184805 55 221 1.0 2.0 0.78 0.22 0.22 96 1018.1
20260509184303 55 279 1.0 2.0 0.61 0.16 0.16 95 1018.0
20260509183759 56 282 2.0 2.0 0.38 0.09 0.09 93 1017.9
20260509183255 56 108 0.0 2.0 0.24 0.06 0.06 90 1017.8